Current Version              Previous Version:    01  02  03  04  05  06  07  08  09  10  11  12  13  14  15  16  17  18  19  20  21  22  23  24  25  26  27  28  29  30  
   31  32  33  34  35  36  37  38  39  40  41  42  43  44  45  46  47  48  49  50  51  52  53  54  55  56  57  58  59  60  

[Printable]
718
ASUS44 KEWX 232310
RWRTX
SOUTH TEXAS REGIONAL WEATHER ROUNDUP
NATIONAL WEATHER SERVICE AUSTIN/SAN ANTONIO TX
600 PM CDT WED APR 23 2014

NOTE: "FAIR" INDICATED FEW OR NO CLOUDS BELOW 12,000 FEET WITH NO
SIGNIFICANT WEATHER AND/OR OBSTRUCTIONS TO VISIBILITY.

* - THESE STATIONS ARE NOT NWS OR FAA STATIONS...AND ARE NOT SUBJECT
    TO NWS AND FAA QUALITY CONTROL.

TXZ171-172-183>190-240000-
TEXAS HILL COUNTRY AND EDWARDS PLATEAU

CITY           SKY/WX    TMP DP  RH WIND       PRES   REMARKS
JUNCTION       PTSUNNY   88  56  33 SE18G25   29.73S
*LLANO         MOSUNNY   88  61  40 S9        29.76F
BURNET         MOSUNNY   83  61  47 SE14G22   29.79S
*HORSESHOE BAY MOSUNNY   86  59  40 S14       29.75F
*KERRVILLE     MOSUNNY   85  58  40 SE14G25   29.77F
*FREDERICKSBRG MOSUNNY   84  58  40 S13       29.77F
*ROCKSPRINGS   PTSUNNY   82  57  42 SE14      29.80S
*BOERNE STAGE  MOSUNNY   86  55  35 S12G18    29.79S
*CASTROVILLE   SUNNY     89  56  31 SE13G25   29.75F
HONDO          SUNNY     91  60  35 SE17G26   29.75F HX  90
*UVALDE        SUNNY     89  59  36 SE15G24   29.71F
DEL RIO        CLOUDY    88  58  36 E5        29.67F
LAUGHLIN AFB   CLOUDY    88  58  36 SE13      29.67F THUNDER
CARRIZO SPRGS    N/A     90  59  35 SE15G26   29.67F
$$

TXZ173-191>194-202-209-217>225-228-240000-
CENTRAL AND SOUTH CENTRAL TEXAS

CITY           SKY/WX    TMP DP  RH WIND       PRES   REMARKS
GEORGETOWN     PTSUNNY   84  63  48 S13G20    29.76F
AUSTIN/BERGSTM MOSUNNY   85  63  47 S17G24    29.76F
AUSTIN/MABRY   MOSUNNY   83  61  47 SE9G17    29.77F
*AUSTIN/EXEC   MOSUNNY   84  63  48 S13G20    29.78F
*LAGO VISTA    SUNNY     84  61  46 SE14G21   29.79F
SAN MARCOS     MOSUNNY   82  63  51 SE18G24   29.78F
NEW BRAUNFELS  PTSUNNY   85  62  46 SE23      29.76F
RANDOLPH AFB   SUNNY     87  60  40 SE17G23   29.76F
PT SAN ANTONIO MOSUNNY   88  61  40 SE18      29.74S
SAN ANTONIO    MOSUNNY   87  60  40 SE18      29.76S
STINSON FIELD  MOSUNNY   90  60  36 SE14G28   29.73F
*PLEASANTON    MOSUNNY   88  60  39 SE17G25   29.75S
*LA GRANGE     SUNNY     83  66  55 S15G21    29.78F
*GIDDINGS      MOSUNNY   84  61  46 S9        29.82F
*GONZALES      PTSUNNY   83  65  54 SE16G25   29.77F
$$

TXZ163>164-176>182-195>201-210>213-226-227-235-240000-
SOUTHEAST TEXAS

CITY           SKY/WX    TMP DP  RH WIND       PRES   REMARKS
COLLEGE STN    SUNNY     83  60  45 S15       29.80F
*BRYAN         MOSUNNY   81  62  51 SE14G20   29.80F
*CALDWELL      DRIZZLE   82  59  44 S15G22    29.82F
*CROCKETT      SUNNY     84  66  54 S10G17    29.84S
*BRENHAM       SUNNY     82  61  49 SE8G17    29.81F
HUNTSVILLE     SUNNY     83  57  41 S12       29.82F
CONROE         SUNNY     81  62  52 SE12      29.84F
HOUSTON BUSH   MOSUNNY   79  66  64 SE17      29.84F
HOUSTON HOBBY  MOSUNNY   78  64  61 S12       29.85F
*HOUSTON SW AP MOSUNNY   78  65  62 SE15      29.86S
PEARLAND       MOSUNNY   78  64  61 SE13G23   29.88S
HOUSTON HOOKS  PTSUNNY   80  64  58 SE12      29.83F
ELLINGTON FLD  PTSUNNY   86  64  48 S13       29.87F
SUGAR LAND     SUNNY     80  66  62 S17       29.83F
*HOUSTON EXEC  SUNNY     82  64  54 S15       29.83F
*CLEVELAND MUN   N/A     81  65  57 S12G18    29.85F
*WHARTON       SUNNY     78  64  62 SE18      29.84F
$$

TXZ214>216-236>238-240000-
THE UPPER TEXAS COAST

CITY           SKY/WX    TMP DP  RH WIND       PRES   REMARKS
*ORANGE        MOSUNNY   77  64  63 S14       29.90S
PORT ARTHUR    MOSUNNY   77  65  66 S13       29.88S
GALVESTON      MOSUNNY   74  69  85 S15       29.88F
ANGLETON       MOSUNNY   77  66  68 SE14      29.86F
*BAY CITY      MOSUNNY   79  67  67 SE12      29.85F
PALACIOS       SUNNY     77  65  66 SE16      29.84F
$$

TXZ229>234-239>247-240000-
TEXAS COASTAL BEND AND RIO GRANDE PLAINS

CITY           SKY/WX    TMP DP  RH WIND       PRES   REMARKS
VICTORIA       MOSUNNY   79  67  66 SE20      29.81F
*BEEVILLE      SUNNY     84  61  46 SE22      29.78S
ROCKPORT       PTSUNNY   76  69  79 SE14G25   29.82F
*PORT ARANSAS  PTSUNNY   75  70  83 SE13G18   29.82F
*PORT LAVACA   MOSUNNY   76  69  79 SE16      29.83F
*INGLESIDE     PTSUNNY   78  68  70 SE22      29.81F
CORPUS CHRISTI MOSUNNY   81  64  56 SE24G32   29.80F
CORPUS NAS     MOSUNNY   78  68  71 SE22      29.81F
*ROBSTOWN      SUNNY     83  59  43 SE22G29   29.79F
ALICE          SUNNY     83  60  45 SE23G30   29.76F
KINGSVILLE NAS MOSUNNY   82  63  52 SE22G31   29.78F
COTULLA        SUNNY     91  60  35 S17G29    29.70F HX  90
*FAITH RANCH   SUNNY     91  61  35 SE14G26   29.69S HX  91
LAREDO         SUNNY     92  64  39 SE21      29.72F HX  93
$$

TXZ248>255-240000-
DEEP SOUTH TEXAS

CITY           SKY/WX    TMP DP  RH WIND       PRES   REMARKS
BROWNSVILLE    SUNNY     80  66  62 SE17      29.81S
PORT ISABEL    NOT AVBL
*SOUTH PADRE   SUNNY     77  70  78 CALM      29.82F
HARLINGEN      SUNNY     84  61  45 SE17G28   29.78S
*HEBBRONVILLE  MOSUNNY   88  62  42 SE17G24   29.75F
MCALLEN        MOSUNNY   83  63  50 S20G25    29.77F
*WESLACO       SUNNY     84  60  44 S20G25    29.77F
FALFURRIAS     SUNNY     85  64  47 SE18G25   29.75F
EDINBURG       SUNNY     87  60  40 S16G23    29.77S
*ZAPATA        MOSUNNY   90  62  39 S15G24    29.70F HX  91
$$

TXZ213>215-236>238-242>244-246-247-251-254-255-240000-
CMAN STATIONS

STATION/POSITION TIME  TEMP    WIND        PRES    WAVE
                       AIR SEA DIR/SP/G            HT/PER
                 (UTC) (F)     (DEG/KT/KT) (MB)    (FT/S)
SABINE PASS      2300   73 71  170/ 11/ 13 1012.0
SEA RIM ST PARK  2300   72     160/  9/ 11 1012.6
NORTH JETTY/GLS  2300   72 73  170/ 11/ 12   N/A
EAGLE POINT      2300   73 71  170/ 14/ 16 1011.4
MORGANS POINT    2300   74 68  140/ 10/ 16   N/A
PORT O`CONNOR    2300          130/ 16/ 18   N/A
PORT ARANSAS     2300   72 76  120/ 15/ 16 1009.9
MALAQUITE BEACH  2300   72 73  120/ 15/ 19 1009.1
BAFFIN BAY       2300   74 80  130/ 16/ 22 1009.4
PORT ISABEL      2300   75 75  130/ 13/ 18 1009.9
$$

GMZ080-GMZ150>470-240000-
OFFSHORE BUOY REPORTS

STATION/POSITION TIME  TEMP    WIND        PRES    WAVE
                       AIR SEA DIR/SP/G            HT/PER
                 (UTC) (F)     (DEG/KT/KT) (MB)    (FT/S)
20 E GALVESTON   2300   71 72  150/ 10/ 12 1011.9    1/ 2
35 NE PT MANSFLD 2300   72 72  130/ 14/ 16 1009.7    2/ 4
$$